Find Starlink 31407

NORAD ID: 59250 Int'l Des: 2024-049 Owner: SPXS Country: US Constellation: starlink operational
LEOCIRCULAR

Live Position

Loading 3D Globe...

About Starlink 31407

Description loading...

Upcoming Passes

Passes for default location (London). Set your location on the main map for personalized predictions.

Altitude History

Loading altitude history...

Two-Line Element Set

1 59250U 24049V 26133.01534551 .00001214 00000-0 53652-4 0 9992
2 59250 43.0009 129.0276 0001257 276.9598 83.1111 15.27567319122362
Epoch: May 13, 2026 • Age: 15 hours

Current Status

Altitude 490.7 km
Velocity 7.62 km/s
Sub-Earth Point -30.15°S, 119.87°W
Launch Date Mar 16, 2024
Age 2.1 years
Type internet

Technical Details

Classification Payload
Mass 730.00 kg
Dry Mass 700.00 kg
Total Mass 730.00 kg
Length 0.30 m
Diameter 4.10 m
Span 29.00 m
Shape Box + pan
Manufacturer SPXS
Bus Type Starlink V2M
Phase Status In Orbit
Owner/State SPXS/US

Most Searched